Wind_Speed
23 23 25 24 25 23 21 22 24 25 24 23 23 21 19 18 17 17 17 17 17 17 18 17 15 15 15 14 15 15 15 16 16 16 16 17 16 16 17 17 15 15
24 24 25 25 26 26 23 23 23 24 23 21 20 19 18 18 18 19 20 19 18 17 17 17 16 16 15 14 16 15 15 16 16 16 17 17 17 17 16 17 15 14
22 25 26 26 28 26 24 24 23 22 21 20 20 19 20 22 21 21 21 19 17 15 17 18 18 17 16 15 16 15 15 15 15 15 16 16 17 17 17 15 14 14
23 26 28 28 27 25 24 23 22 21 21 21 22 22 23 23 21 20 19 19 18 16 18 20 20 19 17 16 16 15 14 14 14 14 15 16 16 17 17 15 13 13
25 26 26 26 26 24 24 23 21 21 23 23 24 25 24 23 21 20 19 20 19 17 18 20 20 19 17 16 15 15 14 14 14 14 15 16 16 16 16 15 14 13
26 25 25 26 25 24 24 24 22 23 24 25 26 25 24 23 23 22 22 20 18 17 18 20 20 19 17 16 17 16 15 15 14 14 14 15 15 15 16 15 15 13
26 25 26 26 25 25 25 25 24 24 24 26 27 26 25 24 24 23 20 19 18 18 19 20 20 20 19 18 18 17 16 15 15 14 13 14 15 16 15 15 15 14
26 25 26 26 26 27 26 25 25 24 23 24 24 25 25 24 23 21 19 19 19 17 18 18 18 20 21 21 19 17 16 15 15 14 13 13 15 16 15 15 15 14
26 25 26 26 26 27 27 25 24 24 24 24 23 22 23 23 22 21 20 20 19 16 17 17 18 21 22 21 18 17 17 16 15 14 13 13 15 15 14 14 14 14
26 26 26 27 27 26 27 25 23 25 26 26 25 23 22 21 20 20 21 21 19 17 17 18 20 22 21 18 17 17 17 16 16 15 14 13 14 15 13 12 14 15
21 25 26 27 27 26 26 25 24 26 27 26 26 25 22 20 19 19 21 20 18 17 17 19 21 21 18 16 16 15 15 16 17 18 15 14 14 14 13 12 13 14
15 21 25 28 28 27 27 26 26 27 28 27 26 25 23 20 20 20 20 19 18 17 17 18 19 19 17 15 15 15 16 17 20 20 17 15 16 15 13 13 13 13
15 18 24 28 28 28 27 26 27 27 28 26 24 24 24 22 21 21 21 20 19 18 17 16 17 18 16 16 17 18 18 19 19 19 18 18 17 15 14 14 14 14
16 18 22 26 28 28 27 27 26 25 25 24 22 24 24 21 20 21 22 22 20 19 18 17 17 17 16 17 18 18 17 17 18 20 21 20 18 16 16 15 14 13
12 17 20 21 22 24 26 27 26 23 23 22 21 24 22 18 19 21 23 23 22 21 20 17 18 18 16 17 18 18 18 19 21 23 22 21 20 19 18 16 14 12
10 14 17 15 16 20 23 24 24 23 22 20 22 23 20 18 21 23 23 23 23 22 21 19 19 18 16 17 19 20 21 23 24 24 23 22 22 21 19 16 14 12
10 13 17 16 17 20 21 22 23 23 22 22 23 22 19 19 21 21 21 23 23 22 21 20 20 19 17 19 20 21 22 24 25 25 24 24 23 21 19 17 14 12
12 17 21 20 20 20 19 19 22 23 23 23 23 21 18 18 19 21 23 23 23 22 21 21 20 19 19 20 20 21 22 23 23 23 23 22 21 19 17 15 13 11
15 21 22 19 19 20 18 18 22 23 23 23 21 20 19 19 22 26 28 26 25 24 23 22 22 22 22 21 21 21 21 21 20 19 18 18 16 15 14 12 11 10
19 22 22 19 19 20 19 20 22 23 22 21 19 19 21 24 27 30 30 29 28 26 25 25 24 24 23 23 22 21 20 20 19 17 15 14 13 12 11 11 10 9
21 24 24 22 21 20 21 21 20 22 22 20 20 22 25 27 29 30 30 30 29 28 27 25 24 23 21 22 22 22 21 20 19 17 15 13 12 11 10 10 9 7
20 23 25 24 23 22 23 22 20 21 24 25 25 27 29 29 30 30 29 29 28 27 26 24 22 21 20 19 20 21 21 20 17 16 14 12 11 10 9 8 7 6
15 18 22 25 26 24 24 24 24 24 26 29 30 30 31 31 30 29 27 27 26 25 25 24 21 19 17 17 16 17 18 15 13 14 14 12 11 10 9 8 7 6
11 12 15 20 24 24 22 22 23 24 24 27 30 29 29 29 29 28 27 25 24 23 23 23 21 18 15 15 14 15 17 16 15 17 17 15 13 11 9 8 8 6
12 11 12 13 15 18 19 19 19 19 19 21 25 26 26 26 26 26 24 22 21 21 21 20 19 17 15 14 15 16 18 19 19 20 20 18 15 14 12 9 8 6
15 14 14 13 12 13 15 15 16 17 17 18 22 24 24 23 22 22 21 19 17 17 17 17 17 16 14 13 14 15 16 17 18 19 20 19 16 15 13 11 9 8
Wind_Direction
204 200 202 199 190 191 196 197 195 192 192 193 194 198 198 196 197 194 190 186 180 177 175 174 176 181 183 180 180 181 182 184 183 184 189 190 191 193 197 199 198 196
201 197 198 201 197 193 194 201 202 195 195 197 197 195 187 180 180 177 173 170 166 171 175 174 173 174 172 172 178 181 182 182 180 184 189 190 191 196 198 198 197 199
200 197 197 200 199 192 191 200 204 197 195 194 189 180 168 165 164 163 165 164 162 167 175 175 172 168 165 166 173 179 182 184 183 184 188 192 194 197 198 196 194 200
200 199 199 202 199 190 188 197 200 194 188 182 177 169 163 161 161 164 169 169 166 165 166 169 169 168 167 168 173 178 180 184 187 188 191 194 196 197 196 193 192 197
199 199 201 202 196 186 186 191 190 186 182 175 170 167 165 165 166 169 173 173 173 171 165 165 167 170 173 174 176 175 174 178 186 190 192 194 195 196 196 192 189 191
198 199 200 199 191 182 182 184 182 183 182 174 170 170 170 170 169 169 172 175 180 179 172 168 168 171 173 172 170 167 164 167 173 180 188 190 188 189 190 189 188 188
197 198 197 194 187 182 179 178 180 185 185 177 172 174 173 170 168 169 171 174 176 175 170 167 168 172 171 167 165 165 164 165 166 169 177 178 179 183 185 185 185 184
193 195 194 189 184 183 179 175 179 186 183 176 173 173 172 168 167 170 172 173 174 175 175 174 172 173 171 168 166 168 171 171 169 167 167 168 172 177 180 182 182 180
190 192 191 185 182 183 181 176 176 180 176 171 171 172 171 169 169 170 173 175 177 178 179 178 174 171 170 168 169 171 174 176 177 172 164 164 170 174 177 180 182 181
190 192 189 183 180 180 181 177 170 170 170 167 167 168 168 167 167 171 175 177 176 172 169 169 169 167 168 170 172 176 178 180 183 178 169 166 173 177 177 177 177 179
190 192 186 176 172 173 177 177 168 166 169 167 164 165 166 164 165 171 174 173 173 169 163 163 165 166 167 170 173 177 181 181 180 177 171 165 168 172 174 174 174 175
191 190 180 168 165 168 171 173 169 168 171 169 167 169 167 164 166 168 168 170 175 173 166 163 165 166 163 158 157 160 163 166 170 171 168 165 166 169 173 172 168 166
195 191 177 166 162 164 167 170 169 170 172 171 172 171 167 165 169 170 170 172 176 176 172 167 163 165 162 151 149 152 154 159 165 168 169 169 167 165 164 162 157 155
192 193 181 171 166 165 167 170 169 170 172 172 172 170 167 168 172 174 174 175 175 175 175 170 165 167 164 154 153 155 156 161 165 165 165 163 159 156 156 154 151 148
183 189 185 179 174 170 169 170 169 169 171 172 171 169 168 169 170 172 175 176 176 175 175 171 169 170 165 159 159 156 151 155 158 157 156 155 153 153 154 154 151 147
162 178 185 182 177 175 175 174 171 168 168 170 170 168 168 170 169 170 175 177 176 175 174 173 170 168 164 161 160 153 145 145 147 146 146 147 148 147 146 146 145 140
137 159 175 176 175 176 178 177 171 167 164 164 166 167 167 170 171 170 173 175 174 175 176 174 170 166 161 158 156 150 143 140 139 138 138 141 142 141 137 134 131 128
131 148 159 162 164 168 175 175 168 164 164 164 166 168 163 162 164 163 163 164 166 167 169 169 167 160 154 151 149 145 140 136 134 134 134 136 137 136 133 130 127 126
133 146 150 148 153 163 175 174 162 158 161 162 166 166 158 153 154 152 150 150 151 150 149 151 151 147 145 145 143 140 136 131 128 128 128 128 130 131 129 128 126 124
129 137 139 138 145 156 160 158 156 157 160 162 164 160 152 149 149 146 142 141 142 140 136 137 138 137 139 141 140 137 133 126 121 120 121 120 121 120 119 120 120 119
124 127 130 131 135 141 139 136 140 148 153 157 157 152 149 149 148 144 141 139 139 139 137 136 136 136 137 140 141 139 135 125 115 112 113 113 116 115 114 117 119 119
118 124 129 130 128 127 124 119 117 126 137 144 144 143 143 144 143 142 140 139 139 141 141 138 138 140 142 145 146 145 140 130 119 116 116 117 122 127 131 136 137 137
107 117 125 130 130 123 114 111 106 108 120 130 133 133 134 136 136 136 137 138 140 141 141 138 137 140 145 149 152 155 155 149 137 132 132 131 132 136 144 146 143 149
101 113 122 128 131 126 118 116 112 106 111 121 126 126 128 130 133 133 133 134 136 137 139 137 133 132 137 140 141 151 160 160 152 144 141 139 138 135 137 139 136 142
98 112 122 124 125 124 121 123 125 121 119 123 126 126 126 127 128 128 126 124 122 124 129 132 130 129 133 136 137 142 148 149 149 148 142 140 141 137 131 130 128 125
93 107 116 116 120 126 125 125 130 136 138 137 133 131 130 127 125 122 118 113 110 110 115 122 125 126 128 134 138 143 146 148 151 150 144 139 136 132 127 121 115 108
Height
787 789 791 792 793 796 801 804 803 803 804 805 806 807 809 811 813 815 816 817 819 819 820 821 822 824 825 825 826 827 829 830 831 832 833 834 835 837 838 839 840 841
785 788 789 791 792 792 796 801 803 803 804 805 806 807 808 810 812 813 815 817 818 819 820 820 821 823 824 825 826 827 829 830 831 832 833 834 835 836 837 839 840 841
784 786 788 789 790 790 792 798 801 802 803 804 805 806 807 809 811 813 815 817 818 819 819 820 821 822 823 825 826 827 828 830 831 832 833 835 835 836 837 839 840 841
783 785 786 789 790 790 792 796 800 801 802 803 804 805 807 808 810 812 815 817 818 819 820 820 821 822 824 825 826 827 828 829 831 832 834 835 836 837 838 839 840 841
783 784 786 789 790 790 792 795 798 800 801 803 804 805 806 808 810 812 814 817 818 819 820 821 822 823 824 825 826 827 828 829 831 832 834 835 836 837 838 839 840 841
783 784 786 789 791 791 792 795 797 799 800 802 803 805 806 808 809 812 814 816 818 819 820 821 822 823 824 825 826 827 828 830 831 832 834 835 836 837 838 839 840 841
782 783 785 787 790 792 792 794 796 798 799 800 802 804 806 808 810 812 814 816 818 819 820 821 822 823 824 825 826 828 829 830 832 833 834 835 837 838 839 840 840 841
781 783 784 786 789 790 790 792 794 796 799 801 803 805 806 808 810 813 815 817 818 819 820 821 822 823 823 825 826 828 829 831 833 834 835 836 837 838 839 840 840 841
781 782 783 785 786 787 788 790 792 795 799 802 804 807 808 809 811 813 815 818 819 820 821 822 823 823 824 825 827 828 830 831 833 834 835 836 837 838 839 840 840 841
780 781 782 784 785 786 788 790 792 795 798 800 803 807 809 809 811 813 815 817 819 821 822 822 823 824 825 826 827 828 830 832 833 834 835 836 837 838 839 840 840 841
780 781 782 783 784 786 789 790 793 797 799 801 802 806 808 809 811 813 815 817 819 821 822 823 824 825 825 826 827 828 830 831 833 834 835 836 837 838 839 840 841 842
783 783 783 783 785 787 790 792 795 798 800 801 803 805 807 809 811 813 815 817 819 821 822 823 824 825 826 826 827 828 829 830 832 834 835 836 837 838 840 840 841 843
784 784 784 784 786 788 790 792 795 797 799 801 803 805 807 809 810 813 815 817 819 821 823 824 825 826 826 827 827 828 829 831 832 834 835 836 838 839 840 841 842 843
784 786 785 786 787 789 791 793 795 797 799 801 804 805 807 808 810 813 815 817 819 821 823 824 825 826 827 827 828 829 830 830 832 833 835 836 838 839 840 841 842 843
785 786 787 787 788 790 792 794 796 798 800 802 804 806 808 809 810 812 814 817 819 821 822 824 825 826 827 828 829 829 829 830 831 833 835 836 838 839 840 841 842 843
785 786 787 789 791 792 794 795 796 798 800 802 805 807 808 809 810 812 814 817 819 820 822 824 825 827 828 828 829 829 830 831 832 833 835 836 837 839 840 841 842 844
786 787 788 791 793 794 796 797 797 799 801 803 805 807 809 809 810 812 814 817 819 820 822 824 825 827 828 829 829 830 831 831 833 834 835 836 838 839 841 842 843 844
787 788 790 792 793 794 797 798 798 799 801 803 805 807 808 810 811 813 815 817 819 821 823 824 826 828 829 830 830 831 832 833 834 835 836 838 839 840 841 843 844 845
788 789 790 791 793 795 798 799 798 799 801 803 805 807 808 810 811 813 815 817 819 821 823 825 827 828 829 830 831 832 833 834 835 837 838 839 840 841 842 844 845 845
789 789 790 791 793 796 799 799 799 800 802 803 805 807 808 810 812 814 816 818 820 822 824 826 828 829 830 831 832 833 833 834 836 837 838 840 841 842 843 844 845 845
790 790 791 793 795 797 797 798 799 800 802 804 805 807 808 810 813 815 817 818 820 822 825 827 828 830 831 831 832 832 833 834 836 837 839 840 842 843 843 844 845 845
792 792 793 794 796 798 798 799 801 802 802 804 805 807 809 811 814 816 818 819 821 823 824 826 829 830 831 832 832 832 833 834 835 837 838 840 842 843 843 844 844 845
795 795 795 796 797 799 801 802 803 804 804 805 806 808 810 813 815 817 819 821 823 824 825 826 828 830 832 832 832 833 833 833 834 836 838 840 841 842 843 844 844 845
798 798 799 799 799 801 803 804 805 806 808 808 809 810 812 814 816 818 821 823 825 825 826 827 828 830 832 832 832 833 833 833 834 836 838 839 841 842 843 843 844 845
800 801 802 802 802 802 804 806 807 808 811 813 813 814 815 817 819 820 822 825 827 827 827 828 829 830 832 833 833 833 833 833 834 836 837 839 840 841 842 843 845 846
802 803 803 804 805 805 806 808 809 809 812 815 816 817 818 820 821 822 824 827 829 830 829 829 829 830 831 833 833 834 835 835 836 837 838 839 840 841 842 843 844 845